HIMAWARI-9 1 41836U 16064A 21060.99192274 -.00000283 00000-0 00000+0 0 9994 2 41836 0.0018 180.1790 0001064 207.5032 270.1347 1.00269983 15917 H-2A R/B 1 41837U 16064B 21058.44446555 .00017590 00000-0 14081-2 0 9991 2 41837 22.2953 218.4913 7042889 290.0638 10.7255 2.61341877 38989